linux/drivers/watchdog/
<<
>>
Prefs
Kconfig 59340 2019-03-27 05:13:05
Makefile 7697 2019-03-27 05:13:05
acquirewdt.c 8692 2019-03-27 05:13:05
advantechwdt.c 7983 2019-03-27 05:13:05
alim1535_wdt.c 10135 2019-03-27 05:13:05
alim7101_wdt.c 11167 2019-03-27 05:13:05
ar7_wdt.c 7879 2019-03-27 05:13:05
asm9260_wdt.c 9404 2019-03-27 05:13:05
aspeed_wdt.c 5157 2019-03-27 05:13:05
at32ap700x_wdt.c 9841 2019-03-27 05:13:05
at91rm9200_wdt.c 8064 2019-03-27 05:13:05
at91sam9_wdt.c 10960 2019-03-27 05:13:05
at91sam9_wdt.h 1530 2019-03-27 05:13:05
ath79_wdt.c 7593 2019-03-27 05:13:05
atlas7_wdt.c 5975 2019-03-27 05:13:05
bcm2835_wdt.c 6941 2019-03-27 05:13:05
bcm47xx_wdt.c 6150 2019-03-27 05:13:05
bcm63xx_wdt.c 7136 2019-03-27 05:13:05
bcm7038_wdt.c 5824 2019-03-27 05:13:05
bcm_kona_wdt.c 9616 2019-03-27 05:13:05
bfin_wdt.c 10356 2019-03-27 05:13:05
booke_wdt.c 5971 2019-03-27 05:13:05
cadence_wdt.c 13212 2019-03-27 05:13:05
coh901327_wdt.c 13086 2019-03-27 05:13:05
cpu5wdt.c 6791 2019-03-27 05:13:05
cpwd.c 16264 2019-03-27 05:13:05
da9052_wdt.c 5337 2019-03-27 05:13:05
da9055_wdt.c 4605 2019-03-27 05:13:05
da9062_wdt.c 6458 2019-03-27 05:13:05
da9063_wdt.c 5534 2019-03-27 05:13:05
davinci_wdt.c 6497 2019-03-27 05:13:05
diag288_wdt.c 7647 2019-03-27 05:13:05
digicolor_wdt.c 4645 2019-03-27 05:13:05
dw_wdt.c 8259 2019-03-27 05:13:05
ebc-c384_wdt.c 4305 2019-03-27 05:13:05
ep93xx_wdt.c 4452 2019-03-27 05:13:05
eurotechwdt.c 10928 2019-03-27 05:13:05
f71808e_wdt.c 22352 2019-03-27 05:13:05
gef_wdt.c 7672 2019-03-27 05:13:05
geodewdt.c 6603 2019-03-27 05:13:05
gpio_wdt.c 6045 2019-03-27 05:13:05
hpwdt.c 10119 2019-03-27 05:13:05
i6300esb.c 12672 2019-03-27 05:13:05
iTCO_vendor.h 680 2019-03-27 05:13:05
iTCO_vendor_support.c 11089 2019-03-27 05:13:05
iTCO_wdt.c 19352 2019-03-27 05:13:05
ib700wdt.c 8519 2019-03-27 05:13:05
ibmasr.c 9628 2019-03-27 05:13:05
ie6xx_wdt.c 8769 2019-03-27 05:13:05
imgpdc_wdt.c 9602 2019-03-27 05:13:05
imx2_wdt.c 12441 2019-03-27 05:13:05
indydog.c 4703 2019-03-27 05:13:05
intel-mid_wdt.c 4347 2019-03-27 05:13:05
intel_scu_watchdog.c 15396 2019-03-27 05:13:05
intel_scu_watchdog.h 2053 2019-03-27 05:13:05
iop_wdt.c 6030 2019-03-27 05:13:05
it8712f_wdt.c 10199 2019-03-27 05:13:05
it87_wdt.c 18703 2019-03-27 05:13:05
ixp4xx_wdt.c 4680 2019-03-27 05:13:05
jz4740_wdt.c 6364 2019-03-27 05:13:05
kempld_wdt.c 14963 2019-03-27 05:13:05
ks8695_wdt.c 7838 2019-03-27 05:13:05
lantiq_wdt.c 5878 2019-03-27 05:13:05
lpc18xx_wdt.c 9307 2019-03-27 05:13:05
m54xx_wdt.c 5130 2019-03-27 05:13:05
machzwd.c 10054 2019-03-27 05:13:05
max63xx_wdt.c 7154 2019-03-27 05:13:05
max77620_wdt.c 5472 2019-03-27 05:13:05
mei_wdt.c 16305 2019-03-27 05:13:05
mena21_wdt.c 6031 2019-03-27 05:13:05
menf21bmc_wdt.c 5492 2019-03-27 05:13:05
meson_gxbb_wdt.c 8143 2019-03-27 05:13:05
meson_wdt.c 6585 2019-03-27 05:13:05
mixcomwd.c 7428 2019-03-27 05:13:05
moxart_wdt.c 4566 2019-03-27 05:13:05
mpc8xxx_wdt.c 7024 2019-03-27 05:13:05
mt7621_wdt.c 4294 2019-03-27 05:13:05
mtk_wdt.c 6862 2019-03-27 05:13:05
mtx-1_wdt.c 6368 2019-03-27 05:13:05
mv64x60_wdt.c 7825 2019-03-27 05:13:05
ni903x_wdt.c 6899 2019-03-27 05:13:05
nuc900_wdt.c 7310 2019-03-27 05:13:05
nv_tco.c 12493 2019-03-27 05:13:05
nv_tco.h 2062 2019-03-27 05:13:05
octeon-wdt-main.c 17230 2019-03-27 05:13:05
octeon-wdt-nmi.S 1370 2019-03-27 05:13:05
of_xilinx_wdt.c 6996 2019-03-27 05:13:05
omap_wdt.c 9788 2019-03-27 05:13:05
omap_wdt.h 2300 2019-03-27 05:13:05
orion_wdt.c 16996 2019-03-27 05:13:05
pc87413_wdt.c 14364 2019-03-27 05:13:05
pcwd.c 26527 2019-03-27 05:13:05
pcwd_pci.c 20378 2019-03-27 05:13:05
pcwd_usb.c 21650 2019-03-27 05:13:05
pic32-dmt.c 5743 2019-03-27 05:13:05
pic32-wdt.c 6240 2019-03-27 05:13:05
pika_wdt.c 6878 2019-03-27 05:13:05
pnx4008_wdt.c 7267 2019-03-27 05:13:05
pnx833x_wdt.c 7250 2019-03-27 05:13:05
pretimeout_noop.c 1270 2019-03-27 05:13:05
pretimeout_panic.c 1252 2019-03-27 05:13:05
qcom-wdt.c 6521 2019-03-27 05:13:05
rc32434_wdt.c 8324 2019-03-27 05:13:05
rdc321x_wdt.c 7328 2019-03-27 05:13:05
renesas_wdt.c 5365 2019-03-27 05:13:05
retu_wdt.c 4630 2019-03-27 05:13:05
riowd.c 5716 2019-03-27 05:13:05
rn5t618_wdt.c 5293 2019-03-27 05:13:05
rt2880_wdt.c 5041 2019-03-27 05:13:05
s3c2410_wdt.c 20370 2019-03-27 05:13:05
sa1100_wdt.c 4751 2019-03-27 05:13:05
sama5d4_wdt.c 6468 2019-03-27 05:13:05
sb_wdog.c 8737 2019-03-27 05:13:05
sbc60xxwdt.c 10352 2019-03-27 05:13:05
sbc7240_wdt.c 7049 2019-03-27 05:13:05
sbc8360.c 10039 2019-03-27 05:13:05
sbc_epx_c3.c 5119 2019-03-27 05:13:05
sbc_fitpc2_wdt.c 5377 2019-03-27 05:13:05
sbsa_gwdt.c 11293 2019-03-27 05:13:05
sc1200wdt.c 11388 2019-03-27 05:13:05
sc520_wdt.c 11080 2019-03-27 05:13:05
sch311x_wdt.c 13801 2019-03-27 05:13:05
scx200_wdt.c 6599 2019-03-27 05:13:05
shwdt.c 9322 2019-03-27 05:13:05
sirfsoc_wdt.c 5819 2019-03-27 05:13:05
smsc37b787_wdt.c 15474 2019-03-27 05:13:05
softdog.c 4137 2019-03-27 05:13:05
sp5100_tco.c 15328 2019-03-27 05:13:05
sp5100_tco.h 1732 2019-03-27 05:13:05
sp805_wdt.c 7312 2019-03-27 05:13:05
st_lpc_wdt.c 7474 2019-03-27 05:13:05
stmp3xxx_rtc_wdt.c 4121 2019-03-27 05:13:05
sun4v_wdt.c 4594 2019-03-27 05:13:05
sunxi_wdt.c 8447 2019-03-27 05:13:05
tangox_wdt.c 5514 2019-03-27 05:13:05
tegra_wdt.c 7896 2019-03-27 05:13:05
ts4800_wdt.c 5352 2019-03-27 05:13:05
ts72xx_wdt.c 10015 2019-03-27 05:13:05
twl4030_wdt.c 3873 2019-03-27 05:13:05
txx9wdt.c 4683 2019-03-27 05:13:05
ux500_wdt.c 4104 2019-03-27 05:13:05
via_wdt.c 7638 2019-03-27 05:13:05
w83627hf_wdt.c 10637 2019-03-27 05:13:05
w83877f_wdt.c 10171 2019-03-27 05:13:05
w83977f_wdt.c 12093 2019-03-27 05:13:05
wafer5823wdt.c 7256 2019-03-27 05:13:05
watchdog_core.c 11342 2019-03-27 05:13:05
watchdog_core.h 1330 2019-03-27 05:13:05
watchdog_dev.c 27823 2019-03-27 05:13:05
watchdog_pretimeout.c 4804 2019-03-27 05:13:05
watchdog_pretimeout.h 1645 2019-03-27 05:13:05
wd501p.h 1598 2019-03-27 05:13:05
wdat_wdt.c 13011 2019-03-27 05:13:05
wdrtas.c 15626 2019-03-27 05:13:05
wdt.c 15830 2019-03-27 05:13:05
wdt285.c 4856 2019-03-27 05:13:05
wdt977.c 12079 2019-03-27 05:13:05
wdt_pci.c 17672 2019-03-27 05:13:05
wm831x_wdt.c 7533 2019-03-27 05:13:05
wm8350_wdt.c 4240 2019-03-27 05:13:05
xen_wdt.c 7630 2019-03-27 05:13:05
ziirave_wdt.c 19774 2019-03-27 05:13:05